Flag for U.S.A. Weather past 2 weeks in Portsmouth, Virginia, U.S.A.

Now
89 °F

Broken clouds.


Feels Like: 89 °F
Forecast: 72 / 90 °F
Wind: 8 mph from West

Location: Norfolk Naval Air Station

Current Time: Aug 1, 2015 at 3:16:27 PM

Latest Report: Aug 1, 2015 at 1:59 PM


Visibility: 10 mi

Pressure: 29.89 "Hg

Humidity: 38%

Dew point: 60 °F

Location of PortsmouthLocation

Historic Weather in Portsmouth — Graph

°F

Portsmouth temperature yesterday

Maximum temperature yesterday: 86 °F (at 1:59 PM)
Minimum temperature yesterday: 74 °F (at 5:59 AM)
Average temperature yesterday: 80 °F

Past Weeks' High & Low Weather Summary

 TemperatureHumidityPressure
High93 °F (Jul 20, 2:59 PM)97% (Jul 31, 3:59 AM)30.08 "Hg (Jul 31, 3:59 AM)
Low65 °F (Jul 26, 3:59 AM)31% (Jul 26, 3:59 PM)29.63 "Hg (Jul 21, 3:59 PM)
Average80 °F71%29.94 "Hg
* Reported Jul 17 1:59 PM — Aug 1 1:59 PM, Portsmouth, Weather by CustomWeather, © 2015

Note: Actual official high and low records may vary slightly from our data, if they occured in-between our weather recording intervals... More about our weather records

Advertising

Portsmouth weather history for previous 24 hours

 ConditionsComfort  
Time TempWeatherWind HumidityBarometerVisibility
1:59 PM
Sat, Aug 1
89 °FBroken clouds.8 mph38%29.89 "Hg10 mi
12:59 PM88 °FPartly sunny.6 mph48%29.91 "Hg10 mi
11:59 AM86 °FScattered clouds.8 mph55%29.93 "Hg10 mi
10:59 AM84 °FScattered clouds.8 mph63%29.93 "Hg9 mi
9:59 AM81 °FScattered clouds.7 mph72%29.92 "Hg9 mi
8:59 AM80 °FScattered clouds.5 mph74%29.93 "Hg9 mi
7:59 AM77 °FScattered clouds.6 mph77%29.93 "Hg10 mi
6:59 AM74 °FPassing clouds.5 mph79%29.91 "Hg10 mi
5:59 AM72 °FPassing clouds.5 mph78%29.90 "Hg10 mi
4:59 AM72 °FPassing clouds.5 mph78%29.90 "Hg10 mi
3:59 AM73 °FPassing clouds.5 mph79%29.90 "Hg10 mi
2:59 AM73 °FPassing clouds.5 mph81%29.91 "Hg10 mi
1:59 AM74 °FPassing clouds.6 mph79%29.92 "Hg10 mi
12:59 AM74 °FPassing clouds.5 mph79%29.93 "Hg10 mi
11:59 PM
Fri, Jul 31
76 °FPassing clouds.5 mph72%29.94 "Hg10 mi
10:59 PM76 °FPassing clouds.7 mph72%29.95 "Hg10 mi
9:59 PM74 °FPartly cloudy.No wind79%29.93 "Hg10 mi
8:59 PM76 °FScattered clouds.No wind72%29.91 "Hg10 mi
7:59 PM79 °FScattered clouds.3 mph67%29.91 "Hg10 mi
6:59 PM84 °FPassing clouds.5 mph51%29.89 "Hg10 mi
5:59 PM84 °FScattered clouds.8 mph51%29.88 "Hg10 mi
4:59 PM85 °FPassing clouds.8 mph48%29.89 "Hg10 mi
3:59 PM86 °FPassing clouds.10 mph46%29.90 "Hg10 mi
Weather by CustomWeather, © 2015

See weather overviewHow to use our weather pages